Location: East Horndon
(51.5667°N, 0.3500°E)
Time: 11:50:18
(UTC+00:00)

USA 238 DEB - Pass Details

Date: 08 November 2025
Orbit: 886 x 1325 km, 63.4° (Epoch: 24 November)

Event Time Altitude Azimuth Distance (km) Brightness Sun altitude
Exits shadow 03:33:05 54° 9° (N) 1,231 4.0 -32.9°
Drops below altitude 10° 03:38:47 10° 44° (NE) 2,965 6.7 -32.0°
Sets 03:41:39 0° 48° (NE) 3,994 7.5 -31.6°
